Time,TemperatureF,DewpointF,PressureIn,WindDirection,WindDirectionDegrees,WindSpeedMPH,WindSpeedGustMPH,Humidity,HourlyPrecipIn,Conditions,Clouds,dailyrainin,SoftwareType,DateUTC
2013-12-24 00:00:00,-5.8,-10.4,29.74,North,0,0.0,0.0,80,0.00,,,0.00,WUHU216HW,2013-12-24 06:00:00,
2013-12-24 00:05:00,-5.8,-10.4,29.74,North,0,0.0,0.0,80,0.00,,,0.00,WUHU216HW,2013-12-24 06:05:00,
2013-12-24 00:30:00,-6.3,-11.0,29.74,North,0,0.0,0.0,80,0.00,,,0.00,WUHU216HW,2013-12-24 06:30:00,
2013-12-24 00:35:00,-6.3,-11.0,29.74,North,0,0.0,0.0,80,0.00,,,0.00,WUHU216HW,2013-12-24 06:35:00,
2013-12-24 01:00:00,-6.7,-11.3,29.74,North,0,0.0,0.0,80,0.00,,,0.00,WUHU216HW,2013-12-24 07:00:00,
2013-12-24 01:05:00,-6.7,-11.3,29.74,North,0,0.0,0.0,80,0.00,,,0.00,WUHU216HW,2013-12-24 07:05:00,
2013-12-24 01:30:00,-6.8,-11.2,29.74,North,0,0.0,0.0,81,0.00,,,0.00,WUHU216HW,2013-12-24 07:30:00,
2013-12-24 01:35:00,-6.8,-11.2,29.74,North,0,0.0,0.0,81,0.00,,,0.00,WUHU216HW,2013-12-24 07:35:00,
2013-12-24 02:00:00,-7.6,-12.0,29.75,North,0,0.0,0.0,81,0.00,,,0.00,WUHU216HW,2013-12-24 08:00:00,
2013-12-24 02:05:00,-7.6,-12.0,29.75,North,0,0.0,0.0,81,0.00,,,0.00,WUHU216HW,2013-12-24 08:05:00,
2013-12-24 02:30:00,-7.7,-12.1,29.75,North,0,0.0,0.0,81,0.00,,,0.00,WUHU216HW,2013-12-24 08:30:00,
2013-12-24 02:35:00,-7.7,-12.1,29.75,North,0,0.0,0.0,81,0.00,,,0.00,WUHU216HW,2013-12-24 08:35:00,
2013-12-24 03:00:00,-7.7,-12.1,29.76,North,0,0.0,0.0,81,0.00,,,0.00,WUHU216HW,2013-12-24 09:00:00,
2013-12-24 03:05:00,-7.7,-12.1,29.76,North,0,0.0,0.0,81,0.00,,,0.00,WUHU216HW,2013-12-24 09:05:00,
2013-12-24 03:30:00,-7.6,-12.0,29.77,North,0,0.0,0.0,81,0.00,,,0.00,WUHU216HW,2013-12-24 09:30:00,
2013-12-24 03:35:00,-7.6,-12.0,29.77,North,0,0.0,0.0,81,0.00,,,0.00,WUHU216HW,2013-12-24 09:35:00,
2013-12-24 04:00:00,-6.8,-11.2,29.77,North,0,0.0,0.0,81,0.00,,,0.00,WUHU216HW,2013-12-24 10:00:00,
2013-12-24 04:05:00,-6.8,-11.2,29.77,North,0,0.0,0.0,81,0.00,,,0.00,WUHU216HW,2013-12-24 10:05:00,
2013-12-24 04:30:00,-6.3,-10.7,29.77,North,0,0.0,0.0,81,0.00,,,0.00,WUHU216HW,2013-12-24 10:30:00,
2013-12-24 04:35:00,-6.3,-10.7,29.77,North,0,0.0,0.0,81,0.00,,,0.00,WUHU216HW,2013-12-24 10:35:00,
2013-12-24 05:00:00,-6.7,-11.1,29.77,North,0,0.0,0.0,81,0.00,,,0.00,WUHU216HW,2013-12-24 11:00:00,
2013-12-24 05:05:00,-6.7,-11.1,29.77,North,0,0.0,0.0,81,0.00,,,0.00,WUHU216HW,2013-12-24 11:05:00,
2013-12-24 05:30:00,-7.2,-11.6,29.78,North,0,0.0,0.0,81,0.00,,,0.00,WUHU216HW,2013-12-24 11:30:00,
2013-12-24 05:35:00,-7.2,-11.6,29.78,North,0,0.0,0.0,81,0.00,,,0.00,WUHU216HW,2013-12-24 11:35:00,
2013-12-24 06:00:00,-7.7,-12.1,29.78,North,0,0.0,0.0,81,0.00,,,0.00,WUHU216HW,2013-12-24 12:00:00,
2013-12-24 06:05:00,-7.7,-12.1,29.78,North,0,0.0,0.0,81,0.00,,,0.00,WUHU216HW,2013-12-24 12:05:00,
2013-12-24 06:30:00,-8.1,-12.5,29.78,North,0,0.0,0.0,81,0.00,,,0.00,WUHU216HW,2013-12-24 12:30:00,
2013-12-24 06:35:00,-8.1,-12.5,29.78,North,0,0.0,0.0,81,0.00,,,0.00,WUHU216HW,2013-12-24 12:35:00,
2013-12-24 07:00:00,-8.3,-12.6,29.78,North,0,0.0,0.0,81,0.00,,,0.00,WUHU216HW,2013-12-24 13:00:00,
2013-12-24 07:05:00,-8.3,-12.6,29.78,North,0,0.0,0.0,81,0.00,,,0.00,WUHU216HW,2013-12-24 13:05:00,
2013-12-24 07:30:00,-9.0,-13.3,29.79,North,0,0.0,0.0,81,0.00,,,0.00,WUHU216HW,2013-12-24 13:30:00,
2013-12-24 07:35:00,-9.0,-13.3,29.79,North,0,0.0,0.0,81,0.00,,,0.00,WUHU216HW,2013-12-24 13:35:00,
2013-12-24 07:59:00,-3.6,-7.5,29.81,North,0,0.0,0.0,83,0.00,,,0.00,WUHU216HW,2013-12-24 13:59:00,
2013-12-24 08:00:00,-3.6,-7.5,29.81,North,0,0.0,0.0,83,0.00,,,0.00,WUHU216HW,2013-12-24 14:00:00,
2013-12-24 08:05:00,-3.6,-7.5,29.81,North,0,0.0,0.0,83,0.00,,,0.00,WUHU216HW,2013-12-24 14:05:00,
2013-12-24 08:30:00,4.3,-1.6,29.83,North,0,0.0,0.0,76,0.00,,,0.00,WUHU216HW,2013-12-24 14:30:00,
2013-12-24 08:35:00,4.3,-1.6,29.83,North,0,0.0,0.0,76,0.00,,,0.00,WUHU216HW,2013-12-24 14:35:00,
2013-12-24 09:00:00,-3.1,-9.4,29.84,North,0,0.0,0.0,74,0.00,,,0.00,WUHU216HW,2013-12-24 15:00:00,
2013-12-24 09:05:00,-3.1,-9.4,29.84,North,0,0.0,0.0,74,0.00,,,0.00,WUHU216HW,2013-12-24 15:05:00,
2013-12-24 09:30:00,-2.5,-8.0,29.85,North,0,0.0,0.0,77,0.00,,,0.00,WUHU216HW,2013-12-24 15:30:00,
2013-12-24 09:35:00,-2.5,-8.0,29.85,North,0,0.0,0.0,77,0.00,,,0.00,WUHU216HW,2013-12-24 15:35:00,
2013-12-24 09:59:00,-1.3,-7.0,29.85,North,0,0.0,0.0,76,0.00,,,0.00,WUHU216HW,2013-12-24 15:59:00,
2013-12-24 10:00:00,-1.3,-7.0,29.85,North,0,0.0,0.0,76,0.00,,,0.00,WUHU216HW,2013-12-24 16:00:00,
2013-12-24 10:05:00,-1.3,-7.0,29.85,North,0,0.0,0.0,76,0.00,,,0.00,WUHU216HW,2013-12-24 16:05:00,
2013-12-24 10:30:00,-0.5,-6.1,29.83,North,0,0.0,0.0,77,0.00,,,0.00,WUHU216HW,2013-12-24 16:30:00,
2013-12-24 10:35:00,-0.5,-6.1,29.83,North,0,0.0,0.0,77,0.00,,,0.00,WUHU216HW,2013-12-24 16:35:00,
2013-12-24 11:00:00,1.1,-4.6,29.83,North,0,0.0,0.0,77,0.00,,,0.00,WUHU216HW,2013-12-24 17:00:00,
2013-12-24 11:05:00,1.1,-4.6,29.83,North,0,0.0,0.0,77,0.00,,,0.00,WUHU216HW,2013-12-24 17:05:00,
2013-12-24 11:30:00,2.7,-2.7,29.82,North,0,0.0,0.0,78,0.00,,,0.00,WUHU216HW,2013-12-24 17:30:00,
2013-12-24 11:35:00,2.7,-2.7,29.82,North,0,0.0,0.0,78,0.00,,,0.00,WUHU216HW,2013-12-24 17:35:00,
2013-12-24 12:00:00,4.1,-1.2,29.80,North,0,0.0,0.0,78,0.00,,,0.00,WUHU216HW,2013-12-24 18:00:00,
2013-12-24 12:05:00,4.1,-1.2,29.80,North,0,0.0,0.0,78,0.00,,,0.00,WUHU216HW,2013-12-24 18:05:00,
2013-12-24 12:30:00,5.6,-0.7,29.79,North,0,0.0,0.0,75,0.00,,,0.00,WUHU216HW,2013-12-24 18:30:00,
2013-12-24 12:35:00,5.6,-0.7,29.79,North,0,0.0,0.0,75,0.00,,,0.00,WUHU216HW,2013-12-24 18:35:00,
2013-12-24 12:59:00,6.8,0.8,29.79,North,0,0.0,0.0,76,0.00,,,0.00,WUHU216HW,2013-12-24 18:59:00,
2013-12-24 13:00:00,6.8,0.8,29.79,North,0,0.0,0.0,76,0.00,,,0.00,WUHU216HW,2013-12-24 19:00:00,
2013-12-24 13:05:00,6.8,0.8,29.79,North,0,0.0,0.0,76,0.00,,,0.00,WUHU216HW,2013-12-24 19:05:00,
2013-12-24 13:30:00,6.8,0.3,29.78,North,0,0.0,0.0,74,0.00,,,0.00,WUHU216HW,2013-12-24 19:30:00,
2013-12-24 13:35:00,6.8,0.3,29.78,North,0,0.0,0.0,74,0.00,,,0.00,WUHU216HW,2013-12-24 19:35:00,
2013-12-24 13:59:00,7.6,1.5,29.78,North,0,0.0,0.0,76,0.00,,,0.00,WUHU216HW,2013-12-24 19:59:00,
2013-12-24 14:00:00,7.6,1.5,29.78,North,0,0.0,0.0,76,0.00,,,0.00,WUHU216HW,2013-12-24 20:00:00,
2013-12-24 14:05:00,7.6,1.5,29.78,North,0,0.0,0.0,76,0.00,,,0.00,WUHU216HW,2013-12-24 20:05:00,
2013-12-24 14:30:00,6.1,-0.2,29.76,North,0,0.0,0.0,75,0.00,,,0.00,WUHU216HW,2013-12-24 20:30:00,
2013-12-24 14:35:00,6.1,-0.2,29.76,North,0,0.0,0.0,75,0.00,,,0.00,WUHU216HW,2013-12-24 20:35:00,
2013-12-24 15:00:00,5.2,-1.1,29.75,North,0,0.0,0.0,75,0.00,,,0.00,WUHU216HW,2013-12-24 21:00:00,
2013-12-24 15:05:00,5.2,-1.1,29.75,North,0,0.0,0.0,75,0.00,,,0.00,WUHU216HW,2013-12-24 21:05:00,
2013-12-24 15:30:00,4.0,-2.2,29.77,North,0,0.0,0.0,75,0.00,,,0.00,WUHU216HW,2013-12-24 21:30:00,
2013-12-24 15:35:00,4.0,-2.2,29.77,North,0,0.0,0.0,75,0.00,,,0.00,WUHU216HW,2013-12-24 21:35:00,
2013-12-24 16:00:00,2.5,-3.4,29.75,North,0,0.0,0.0,76,0.00,,,0.00,WUHU216HW,2013-12-24 22:00:00,
2013-12-24 16:05:00,2.5,-3.4,29.75,North,0,0.0,0.0,76,0.00,,,0.00,WUHU216HW,2013-12-24 22:05:00,
2013-12-24 16:30:00,1.3,-4.4,29.76,North,0,0.0,0.0,77,0.00,,,0.00,WUHU216HW,2013-12-24 22:30:00,
2013-12-24 16:35:00,1.3,-4.4,29.76,North,0,0.0,0.0,77,0.00,,,0.00,WUHU216HW,2013-12-24 22:35:00,
2013-12-24 17:00:00,1.1,-4.3,29.75,North,0,0.0,0.0,78,0.00,,,0.00,WUHU216HW,2013-12-24 23:00:00,
2013-12-24 17:05:00,1.1,-4.3,29.75,North,0,0.0,0.0,78,0.00,,,0.00,WUHU216HW,2013-12-24 23:05:00,
2013-12-24 17:30:00,1.1,-4.0,29.73,North,0,0.0,0.0,79,0.00,,,0.00,WUHU216HW,2013-12-24 23:30:00,
2013-12-24 17:35:00,1.1,-4.0,29.73,North,0,0.0,0.0,79,0.00,,,0.00,WUHU216HW,2013-12-24 23:35:00,
2013-12-24 18:00:00,1.3,-3.6,29.72,North,0,0.0,0.0,80,0.00,,,0.00,WUHU216HW,2013-12-25 00:00:00,
2013-12-24 18:05:00,1.3,-3.6,29.72,North,0,0.0,0.0,80,0.00,,,0.00,WUHU216HW,2013-12-25 00:05:00,
2013-12-24 18:30:00,2.5,-1.8,29.72,North,0,0.0,0.0,82,0.00,,,0.00,WUHU216HW,2013-12-25 00:30:00,
2013-12-24 18:35:00,2.5,-1.8,29.72,North,0,0.0,0.0,82,0.00,,,0.00,WUHU216HW,2013-12-25 00:35:00,
2013-12-24 19:00:00,4.0,-0.3,29.72,North,0,0.0,0.0,82,0.00,,,0.00,WUHU216HW,2013-12-25 01:00:00,
2013-12-24 19:05:00,4.0,-0.3,29.72,North,0,0.0,0.0,82,0.00,,,0.00,WUHU216HW,2013-12-25 01:05:00,
2013-12-24 19:30:00,5.2,1.1,29.72,North,0,0.0,0.0,83,0.00,,,0.00,WUHU216HW,2013-12-25 01:30:00,
2013-12-24 19:35:00,5.2,1.1,29.72,North,0,0.0,0.0,83,0.00,,,0.00,WUHU216HW,2013-12-25 01:35:00,
2013-12-24 20:00:00,6.3,2.2,29.70,North,0,0.0,0.0,83,0.00,,,0.00,WUHU216HW,2013-12-25 02:00:00,
2013-12-24 20:05:00,6.3,2.2,29.70,North,0,0.0,0.0,83,0.00,,,0.00,WUHU216HW,2013-12-25 02:05:00,
2013-12-24 20:30:00,7.6,3.7,29.69,North,0,0.0,0.0,84,0.00,,,0.00,WUHU216HW,2013-12-25 02:30:00,
2013-12-24 20:35:00,7.6,3.7,29.69,North,0,0.0,0.0,84,0.00,,,0.00,WUHU216HW,2013-12-25 02:35:00,
2013-12-24 21:00:00,9.4,5.9,29.68,North,0,0.0,0.0,86,0.00,,,0.00,WUHU216HW,2013-12-25 03:00:00,
2013-12-24 21:05:00,9.4,5.9,29.68,North,0,0.0,0.0,86,0.00,,,0.00,WUHU216HW,2013-12-25 03:05:00,
2013-12-24 21:30:00,10.6,7.5,29.66,North,0,0.0,0.0,87,0.00,,,0.00,WUHU216HW,2013-12-25 03:30:00,
2013-12-24 21:35:00,10.6,7.5,29.66,North,0,0.0,0.0,87,0.00,,,0.00,WUHU216HW,2013-12-25 03:35:00,
2013-12-24 22:00:00,12.2,9.6,29.65,North,0,0.0,0.0,89,0.00,,,0.00,WUHU216HW,2013-12-25 04:00:00,
2013-12-24 22:05:00,12.2,9.6,29.65,North,0,0.0,0.0,89,0.00,,,0.00,WUHU216HW,2013-12-25 04:05:00,
2013-12-24 22:29:00,13.5,10.6,29.65,North,0,0.0,0.0,88,0.00,,,0.00,WUHU216HW,2013-12-25 04:29:00,
2013-12-24 22:30:00,13.5,10.6,29.65,North,0,0.0,0.0,88,0.00,,,0.00,WUHU216HW,2013-12-25 04:30:00,
2013-12-24 22:35:00,13.5,10.6,29.65,North,0,0.0,0.0,88,0.00,,,0.00,WUHU216HW,2013-12-25 04:35:00,
2013-12-24 23:00:00,14.4,11.3,29.63,North,0,0.0,0.0,87,0.00,,,0.00,WUHU216HW,2013-12-25 05:00:00,
2013-12-24 23:01:00,14.4,11.3,29.63,North,0,0.0,0.0,87,0.00,,,0.00,WUHU216HW,2013-12-25 05:01:00,
2013-12-24 23:02:00,14.4,11.3,29.63,North,0,0.0,0.0,87,0.00,,,0.00,WUHU216HW,2013-12-25 05:02:00,
2013-12-24 23:07:00,14.4,11.3,29.63,North,0,0.0,0.0,87,0.00,,,0.00,WUHU216HW,2013-12-25 05:07:00,
2013-12-24 23:30:00,14.9,11.4,29.62,North,0,0.0,0.0,86,0.00,,,0.00,WUHU216HW,2013-12-25 05:30:00,
2013-12-24 23:35:00,14.9,11.4,29.62,North,0,0.0,0.0,86,0.00,,,0.00,WUHU216HW,2013-12-25 05:35:00,